Skip Page Navigation
NASA JPL Caltech
NASA Logo - Jet Propulsion Laboratory + View the NASA Portal
+ Near-Earth Object (NEO) Program
Search JPL
JPL Home Earth Solar System Stars & Galaxies Technology
JPL Solar System Dynamics
BODIES ORBITS EPHEMERIDES TOOLS PHYSICAL DATA DISCOVERY FAQ SITE MAP
JPL Small-Body Database Browser
Search: [ help ]  
243096 Klauswerner (2007 RX15)
Classification: Main-belt Asteroid          SPK-ID: 2243096
Ephemeris | Orbit Diagram | Orbital Elements | Physical Parameters | Discovery Circumstances | Close-Approach Data ]

[ show orbit diagram ]
Orbital Elements at Epoch 2456800.5 (2014-May-23.0) TDB
Reference: JPL 5 (heliocentric ecliptic J2000)
 Element Value Uncertainty (1-sigma)   Units 
e .07120671065039511 1.141e-07  
a 2.976928831782421 7.8799e-08 AU
q 2.764951521830871 3.2976e-07 AU
i 10.12128372781225 1.2572e-05 deg
node 219.1645137638063 6.8664e-05 deg
peri 169.7863420429676 0.00012415 deg
M 68.95090531660774 0.00010013 deg
tp 2456441.174054275052
(2013-May-28.67405427)
0.00052086 JED
period 1876.078926984356
5.14
7.449e-05
2.039e-07
d
yr
n .1918895814147173 7.619e-09 deg/d
Q 3.18890614173397 8.441e-08 AU
  Orbit Determination Parameters
   # obs. used (total)      139  
   data-arc span      4129 days (11.30 yr)  
   first obs. used      2002-09-12  
   last obs. used      2014-01-01  
   planetary ephem.      DE431  
   SB-pert. ephem.      SB431-BIG16  
   condition code      0  
   fit RMS      .56162  
   data source      ORB  
   producer      Otto Matic  
   solution date      2014-Jan-22 15:00:01  

Additional Information
 Earth MOID = 1.76968 AU 
 T_jup = 3.233 
[ show covariance matrix ]

Ephemeris | Orbit Diagram | Orbital Elements | Physical Parameters | Discovery Circumstances | Close-Approach Data ]

Physical Parameter Table
Parameter Symbol Value Units Sigma Reference Notes
absolute magnitude H 16.0 mag n/a MPO241535  

243096 Klauswerner           Discovered 2007 Sept. 12 by R. Apitzsch at Wildberg.
Klaus Werner (b. 1957) is Professor of astronomy at the University of Tübingen. His research focuses on compact objects and optical and UV astronomy.
NOTE: some special characters may not display properly (any characters within {} are an attempt to place the proper accent above a character)
Reference: 20120207/MPCPages.arcLast Updated: 2012-02-09

[ show close-approach data ]
Alternate Designations
 2007 RX15 = 2007 VG1 
Ephemeris | Orbit Diagram | Orbital Elements | Physical Parameters | Discovery Circumstances | Close-Approach Data ]
ABOUT SSD CREDITS/AWARDS PRIVACY/COPYRIGHT GLOSSARY LINKS
FirstGov 2014-Apr-18 10:47 UT
(server date/time)  
NASA Home Page
Site Manager:   Donald K. Yeomans
Webmaster  Alan B. Chamberlin